Regional Weather Roundup
Issued by NWS Charleston, WV

Home | Current Version | Previous Version | Text Only | Print | Product List | Glossary Off
Versions: 1 2 3 4 5 6 7 8 9 10 11 12 13 14 15 16 17 18 19 20 21 22 23 24 25 26 27 28 29 30 31 32 33 34 35 36 37 38 39 40 41 42 43 44 45 46 47 48 49 50

000
ASUS41 KRLX 261610
RWRRLX
West Virginia Regional Weather Roundup
National Weather Service Charleston WV
1100 AM EST MON JAN 26 2015

Note: "fair" indicates few or no clouds below 12,000 feet with no
significant weather and/or obstructions to visibility.

WVZ003-261700-
Northern Panhandle of West Virginia

CITY           SKY/WX    TMP DP  RH WIND       PRES   REMARKS
WHEELING       LGT SNOW  25  22  88 NW9       29.71R VSB 1
$$

WVZ009-261700-
Northwest West Virginia

CITY           SKY/WX    TMP DP  RH WIND       PRES   REMARKS
PARKERSBURG    LGT SNOW  27  24  89 NW9       29.78R VSB 3/4
$$

WVZ006-261700-
Western West Virginia

CITY           SKY/WX    TMP DP  RH WIND       PRES   REMARKS
HUNTINGTON     LGT SNOW  27  25  92 NW8       29.81R FOG
$$

WVZ015-261700-
West Central West Virginia

CITY           SKY/WX    TMP DP  RH WIND       PRES   REMARKS
CHARLESTON     LGTSLEET  33  32  96 W8        29.74R VSB 1
$$

WVZ022-031-261700-
North Central West Virginia

CITY           SKY/WX    TMP DP  RH WIND       PRES   REMARKS
CLARKSBURG     LGT RAIN  38  38 100 N3        29.65S FOG
MORGANTOWN     LGT SNOW  35  30  82 E3        29.67R
$$

WVZ025-035-042-045-261700-
Southern West Virginia

CITY           SKY/WX    TMP DP  RH WIND       PRES   REMARKS
BECKLEY        LGT SNOW  35  32  88 SW6       29.64R FOG
LOGAN          LGT SNOW  32  32 100 NW10G20   29.72R VSB 1
BLUEFIELD      LGT RAIN  39  33  79 W5        29.65R
LEWISBURG      DRIZZLE   37  36  96 CALM      29.65S
$$

WVZ047-261700-
Northern Mountains of West Virginia

CITY           SKY/WX    TMP DP  RH WIND       PRES   REMARKS
ELKINS         LGT RAIN  34  34 100 CALM      29.65R FOG
$$

WVZ052-261700-
Eastern Panhandle of West Virginia

CITY           SKY/WX    TMP DP  RH WIND       PRES   REMARKS
MARTINSBURG    LGT SNOW  29  25  85 N6        29.81R FOG
PETERSBURG     LGT SNOW  32  32  99 N5        29.76R
$$



USA.gov is the U.S. government's official web portal to all federal, state and local government web resources and services.